• In Hungary
  • List of Countries
  • For 7 days
  • Water Temperature
  • Satellite Maps
  • Weather Map
  • News
  • Weather Widgets
  • user-avatar
    Login

    Hourly Weather Jesenik

    Today, 19 February, Monday

    Time Temperature Precipitation Wind Pressure Humidity
    00:00 -3°C° 0 mm 1 mps 729 mmHg 85%
    01:00 -4°C° 0 mm 1 mps 729 mmHg 86%
    02:00 -4°C° 0 mm 1 mps 728 mmHg 86%
    03:00 -4°C° 0 mm 1 mps 728 mmHg 86%
    04:00 -4°C° 0 mm 1 mps 727 mmHg 87%
    05:00 -4°C° 0 mm 1 mps 727 mmHg 86%
    06:00 -4°C° 0 mm 1 mps 727 mmHg 86%
    07:00 -6°C° 0 mm 1 mps 727 mmHg 86%
    08:00 -3°C° 0 mm 1 mps 727 mmHg 81%
    09:00 -2°C° 0 mm 1 mps 727 mmHg 75%
    10:00 -1°C° 0 mm 1 mps 727 mmHg 70%
    11:00 -2°C° 0 mm 2 mps 726 mmHg 68%
    12:00 -1°C° 0 mm 2 mps 726 mmHg 66%
    13:00 +1°C° 0 mm 2 mps 726 mmHg 63%
    14:00 -1°C° 0 mm 2 mps 725 mmHg 66%
    15:00 -1°C° 0 mm 2 mps 725 mmHg 69%
    16:00 -1°C° 0 mm 2 mps 724 mmHg 72%
    17:00 0°C° 0 mm 1 mps 724 mmHg 77%
    18:00 -1°C° 0 mm 1 mps 724 mmHg 81%
    19:00 -2°C° 0 mm 1 mps 724 mmHg 85%
    20:00 -2°C° 0 mm 1 mps 724 mmHg 84%
    21:00 -2°C° 0 mm 1 mps 724 mmHg 84%
    22:00 -3°C° 0 mm 1 mps 724 mmHg 83%
    23:00 -3°C° 0 mm 1 mps 723 mmHg 82%

    Tomorrow, 20 February, Tuesday

    Time Temperature Precipitation Wind Pressure Humidity
    00:00 -3°C° 0 mm 1 mps 723 mmHg 82%
    01:00 -3°C° 0 mm 1 mps 723 mmHg 81%
    02:00 -3°C° 0 mm 1 mps 723 mmHg 80%
    03:00 -3°C° 0 mm 1 mps 723 mmHg 80%
    04:00 -3°C° 0 mm 1 mps 722 mmHg 80%
    05:00 -3°C° 0 mm 1 mps 722 mmHg 80%
    06:00 -3°C° 0 mm 1 mps 722 mmHg 80%
    07:00 -3°C° 0 mm 1 mps 722 mmHg 80%
    08:00 -2°C° 0 mm 1 mps 722 mmHg 77%
    09:00 -1°C° 0 mm 1 mps 722 mmHg 73%
    10:00 0°C° 0 mm 1 mps 722 mmHg 70%
    11:00 -2°C° 0 mm 2 mps 722 mmHg 68%
    12:00 -1°C° 0 mm 2 mps 722 mmHg 66%
    13:00 +1°C° 0 mm 2 mps 722 mmHg 64%
    14:00 -1°C° 0 mm 2 mps 722 mmHg 66%
    15:00 -1°C° 0 mm 2 mps 722 mmHg 67%
    16:00 -1°C° 0 mm 2 mps 722 mmHg 69%
    17:00 -2°C° 0 mm 2 mps 722 mmHg 72%
    18:00 -3°C° 0 mm 2 mps 722 mmHg 75%
    19:00 -3°C° 0 mm 2 mps 722 mmHg 77%
    20:00 -4°C° 0 mm 2 mps 722 mmHg 78%
    21:00 -4°C° 0 mm 2 mps 722 mmHg 78%
    22:00 -4°C° 0 mm 2 mps 723 mmHg 79%
    23:00 -4°C° 0 mm 2 mps 723 mmHg 80%

    Day after tomorrow, 21 February, Wednesday

    Time Temperature Precipitation Wind Pressure Humidity
    00:00 -5°C° 0 mm 2 mps 723 mmHg 81%
    01:00 -5°C° 0 mm 2 mps 723 mmHg 82%
    02:00 -5°C° 0 mm 2 mps 723 mmHg 83%
    03:00 -5°C° 0 mm 2 mps 723 mmHg 84%
    04:00 -5°C° 0 mm 2 mps 723 mmHg 85%
    05:00 -6°C° 0 mm 3 mps 723 mmHg 86%
    06:00 -6°C° 0 mm 3 mps 723 mmHg 86%
    07:00 -7°C° 0 mm 3 mps 724 mmHg 87%
    08:00 -6°C° 0 mm 3 mps 724 mmHg 83%
    09:00 -5°C° 0 mm 3 mps 724 mmHg 79%
    10:00 -4°C° 0 mm 3 mps 724 mmHg 75%
    11:00 -2°C° 0 mm 3 mps 724 mmHg 71%
    12:00 -3°C° 0 mm 4 mps 724 mmHg 67%
    13:00 -2°C° 0 mm 4 mps 724 mmHg 63%
    14:00 -2°C° 0 mm 4 mps 724 mmHg 63%
    15:00 -2°C° 0 mm 4 mps 724 mmHg 63%
    16:00 -2°C° 0 mm 4 mps 724 mmHg 64%
    17:00 -3°C° 0 mm 4 mps 724 mmHg 67%
    18:00 -4°C° 0 mm 4 mps 724 mmHg 71%
    19:00 -5°C° 0 mm 4 mps 724 mmHg 74%
    20:00 -5°C° 0 mm 4 mps 724 mmHg 76%
    21:00 -7°C° 0 mm 4 mps 724 mmHg 77%
    22:00 -7°C° 0 mm 4 mps 724 mmHg 78%
    23:00 -7°C° 0 mm 4 mps 724 mmHg 79%

    22 February, Thursday

    Time Temperature Precipitation Wind Pressure Humidity
    00:00 -7°C° 0 mm 4 mps 724 mmHg 81%
    01:00 -7°C° 0 mm 4 mps 724 mmHg 82%
    02:00 -7°C° 0 mm 4 mps 724 mmHg 82%
    03:00 -7°C° 0 mm 4 mps 724 mmHg 82%
    04:00 -7°C° 0 mm 4 mps 724 mmHg 82%
    05:00 -7°C° 0 mm 4 mps 724 mmHg 82%
    06:00 -7°C° 0 mm 5 mps 724 mmHg 81%
    07:00 -7°C° 0 mm 5 mps 724 mmHg 81%
    08:00 -7°C° 0 mm 5 mps 724 mmHg 78%
    09:00 -6°C° 0 mm 5 mps 724 mmHg 75%
    10:00 -6°C° 0 mm 5 mps 724 mmHg 72%
    11:00 -5°C° 0 mm 6 mps 724 mmHg 70%
    12:00 -5°C° 0 mm 6 mps 724 mmHg 68%
    13:00 -4°C° 0 mm 6 mps 724 mmHg 66%
    14:00 -5°C° 0 mm 6 mps 723 mmHg 67%
    15:00 -5°C° 0 mm 6 mps 723 mmHg 68%
    16:00 -5°C° 0 mm 5 mps 723 mmHg 68%
    17:00 -5°C° 0 mm 5 mps 723 mmHg 70%
    18:00 -6°C° 0 mm 5 mps 723 mmHg 73%
    19:00 -6°C° 0 mm 5 mps 723 mmHg 75%
    20:00 -7°C° 0 mm 5 mps 724 mmHg 75%
    21:00 -7°C° 0 mm 4 mps 724 mmHg 75%
    22:00 -7°C° 0 mm 4 mps 724 mmHg 76%
    23:00 -7°C° 0 mm 4 mps 724 mmHg 76%

    23 February, Friday

    Time Temperature Precipitation Wind Pressure Humidity
    00:00 -7°C° 0 mm 4 mps 724 mmHg 76%
    01:00 -7°C° 0 mm 4 mps 724 mmHg 76%
    02:00 -7°C° 0 mm 4 mps 723 mmHg 75%
    03:00 -7°C° 0 mm 5 mps 723 mmHg 75%
    04:00 -7°C° 0 mm 5 mps 723 mmHg 74%
    05:00 -8°C° 0 mm 5 mps 723 mmHg 75%
    06:00 -8°C° 0 mm 5 mps 723 mmHg 75%
    07:00 -8°C° 0 mm 5 mps 724 mmHg 75%
    08:00 -8°C° 0 mm 5 mps 724 mmHg 72%
    09:00 -7°C° 0 mm 5 mps 724 mmHg 69%
    10:00 -7°C° 0 mm 5 mps 724 mmHg 65%
    11:00 -7°C° 0 mm 5 mps 724 mmHg 62%
    12:00 -6°C° 0 mm 6 mps 724 mmHg 59%
    13:00 -6°C° 0 mm 6 mps 724 mmHg 56%
    14:00 -6°C° 0 mm 6 mps 725 mmHg 54%
    15:00 -8°C° 0 mm 6 mps 725 mmHg 52%
    16:00 -8°C° 0 mm 6 mps 725 mmHg 50%
    17:00 -9°C° 0 mm 6 mps 725 mmHg 51%
    18:00 -10°C° 0 mm 5 mps 725 mmHg 51%
    19:00 -10°C° 0 mm 5 mps 726 mmHg 51%
    20:00 -11°C° 0 mm 5 mps 726 mmHg 50%
    21:00 -11°C° 0 mm 5 mps 726 mmHg 49%
    22:00 -11°C° 0 mm 5 mps 727 mmHg 49%
    23:00 -11°C° 0 mm 5 mps 727 mmHg 49%

    24 February, Saturday

    Time Temperature Precipitation Wind Pressure Humidity
    00:00 -12°C° 0 mm 5 mps 727 mmHg 50%
    01:00 -12°C° 0 mm 5 mps 727 mmHg 50%
    02:00 -12°C° 0 mm 5 mps 727 mmHg 52%
    03:00 -12°C° 0 mm 5 mps 727 mmHg 54%
    04:00 -12°C° 0 mm 4 mps 727 mmHg 56%
    05:00 -12°C° 0 mm 4 mps 727 mmHg 59%
    06:00 -12°C° 0 mm 4 mps 727 mmHg 62%
    07:00 -12°C° 0 mm 4 mps 728 mmHg 65%
    08:00 -12°C° 0 mm 5 mps 728 mmHg 61%
    09:00 -12°C° 0 mm 5 mps 729 mmHg 58%
    10:00 -11°C° 0 mm 6 mps 729 mmHg 54%
    11:00 -10°C° 0 mm 6 mps 729 mmHg 48%
    12:00 -10°C° 0 mm 6 mps 729 mmHg 42%
    13:00 -9°C° 0 mm 6 mps 729 mmHg 36%
    14:00 -8°C° 0 mm 5 mps 728 mmHg 39%
    15:00 -8°C° 0 mm 5 mps 728 mmHg 42%
    16:00 -8°C° 0 mm 5 mps 728 mmHg 45%
    17:00 -10°C° 0.1 mm 5 mps 727 mmHg 51%
    18:00 -9°C° 0.1 mm 4 mps 727 mmHg 58%
    19:00 -9°C° 0.1 mm 4 mps 727 mmHg 64%
    20:00 -10°C° 0.2 mm 4 mps 727 mmHg 67%
    21:00 -10°C° 0.2 mm 4 mps 727 mmHg 69%
    22:00 -10°C° 0.2 mm 4 mps 726 mmHg 71%
    23:00 -11°C° 0.1 mm 4 mps 726 mmHg 69%
    Show more